Flag for Germany Weather past 2 weeks in Walsrode, Lower Saxony, Germany

Now
45 °F

Passing clouds.


Feels Like: 41 °F
Forecast: 42 / 65 °F
Wind: 7 mph from Southwest

Location: Fassberg

Current Time: May 31, 2015 at 1:47:31 AM

Latest Report: May 31, 2015 at 12:20 AM


Visibility: N/A

Pressure: 30.01 "Hg

Humidity: 87%

Dew point: 41 °F

Location of WalsrodeLocation

Historic Weather in Walsrode — Graph

°F

Walsrode temperature yesterday

Maximum temperature yesterday: 57 °F (at 12:20 AM)
Minimum temperature yesterday: 45 °F (at 1:20 PM)
Average temperature yesterday: 50 °F

Past Weeks' High & Low Weather Summary

 TemperatureHumidityPressure
High68 °F (May 24, 4:20 PM)100% (May 16, 5:20 AM)30.30 "Hg (May 16, 5:20 AM)
Low32 °F (May 16, 5:20 AM)36% (May 19, 4:20 PM)29.59 "Hg (May 18, 9:20 PM)
Average52 °F71%30.01 "Hg
* Reported May 16 12:20 AM — May 31 12:20 AM, Walsrode, Weather by CustomWeather, © 2015

Note: Actual official high and low records may vary slightly from our data, if they occured in-between our weather recording intervals... More about our weather records

Advertising

Walsrode weather history for previous 24 hours

 ConditionsComfort  
Time TempWeatherWind HumidityBarometerVisibility
12:20 AM
Sun, May 31
45 °FPassing clouds.7 mph87%30.01 "HgN/A
11:20 PM
Sat, May 30
46 °FPassing clouds.8 mph87%29.98 "HgN/A
10:20 PM46 °FScattered clouds.7 mph93%29.98 "HgN/A
9:20 PM48 °FScattered showers. Partly sunny.7 mph87%29.98 "HgN/A
8:20 PM50 °FScattered clouds.6 mph88%29.95 "Hg5 mi
7:20 PM52 °FScattered showers. Scattered clouds.15 mph67%29.95 "HgN/A
6:20 PM54 °FScattered clouds.15 mph67%29.95 "HgN/A
5:20 PM52 °FScattered clouds.12 mph77%29.92 "HgN/A
4:20 PM48 °FSprinkles. Partly sunny.23 mph76%29.92 "HgN/A
3:20 PM54 °FScattered clouds.18 mph63%29.89 "HgN/A
2:20 PM54 °FScattered clouds.21 mph67%29.86 "HgN/A
1:20 PM45 °FBroken clouds.10 mph87%29.86 "HgN/A
12:53 PM52 °FSprinkles. Partly sunny.17 mph72%29.86 "Hg5 mi
12:50 PM54 °FRain showers. Partly sunny.15 mph72%29.86 "Hg4 mi
12:20 PM52 °FScattered clouds.10 mph77%29.86 "HgN/A
11:20 AM54 °FScattered showers. Partly sunny.17 mph58%29.83 "HgN/A
10:20 AM52 °FSprinkles. Partly sunny.14 mph62%29.80 "HgN/A
9:20 AM52 °FPartly sunny.15 mph67%29.80 "HgN/A
8:20 AM50 °FPartly sunny.15 mph76%29.77 "HgN/A
7:20 AM48 °FPartly sunny.16 mph82%29.77 "HgN/A
6:20 AM46 °FBroken clouds.13 mph87%29.74 "HgN/A
5:20 AM46 °FPartly cloudy.13 mph93%29.71 "HgN/A
4:20 AM46 °FPassing clouds.12 mph93%29.71 "HgN/A
3:20 AM48 °FPartly cloudy.12 mph87%29.68 "HgN/A
2:20 AM48 °FLight rain. Partly cloudy.12 mph87%29.71 "HgN/A
1:20 AM50 °FLight rain. Passing clouds.15 mph76%29.68 "HgN/A
Weather by CustomWeather, © 2015

See weather overviewHow to use our weather pages